STARLINK-4176 (53289 NORAD) Tracking and Keplerian Element Data

This shows tracking and keplerian element data for the satellite.

Feedback or suggestion? Click here.




ElementValue
Catalog53289
NameSTARLINK-4176
Epoch Orbit1081
Epoch Day270.25001157
Epoch Year2022
RAAN83.0524
Inclination53.217
Eccentricity0.0002533
Argument of Perigee21.7425
Mean Anonmoly218.6042
Mean Motion15.73199269
Decay Rate0.00012289
L11 53289U 22086AZ 22270.25001157 .00012289 00000+0 91850-4 0 9997
L22 53289 53.2170 83.0524 0002533 21.7425 218.6042 15.73199269 10818

Live tracking and technical data element details for STARLINK-4176 (NORAD 53289). STARLINK-4176 can be tracked NOW for your location showing map with azimuth and elevation plus other details from your city location.

Track the satellite on the map from your city or location and see movement details for azimuth, elevation, latitude, longitude, range, height, and movement on the map or in text.







IsCatalogInMostPopularTable: catalog: 53289, numindb: 3
Update: records affected: 1



GetName: 53289 STARLINK-4176

Hit Count: updated at: Wed, 28 Sep 2022 22:22:30 GMT